Retour au catalogue

STARLINK-3999

ActifCommunicationsVLEO
NORAD 52704·PAYLOAD·🇺🇸 United States

Lancé May 18, 2022 depuis Cape Canaveral Space Force Station

Loading…

Prochains Passages (prochaines 24 heures)

TLE

FraisSource: CelesTrak SupGP

Époque: Sep 15, 2026, 02:31 UTC

1 52704C 22053BA  26258.10534722  .00029459  00000+0  84295-3 0  2584
2 52704  53.1585 352.1467 0001085  93.9611   0.1365 15.35380512    17

Suivez STARLINK-3999 en temps réel avec AllMySat

Download on the App Store